This is the latest recevied weather packets stored in our database for station/object IK8TGH-3. If no packets are shown the sender has not sent any weather packets the latest 10 day(s).
| Time | Temp. | Humidity | Pressure | Rain* | Wind** | Luminosity | Snow |
|---|---|---|---|---|---|---|---|
| 1777291951 | 18.89° C | 52% | 1019.1 hPa | - | - | - | - |
| 1777290751 | 19.44° C | 53% | 1019.1 hPa | - | - | - | - |
| 1777289551 | 18.89° C | 54% | 1019.3 hPa | - | - | - | - |
| 1777288350 | 18.89° C | 54% | 1019.5 hPa | - | - | - | - |
| 1777287150 | 18.33° C | 55% | 1019.6 hPa | - | - | - | - |
| 1777285950 | 18.33° C | 54% | 1019.6 hPa | - | - | - | - |
| 1777284749 | 17.78° C | 54% | 1019.8 hPa | - | - | - | - |
| 1777283549 | 17.78° C | 54% | 1020.1 hPa | - | - | - | - |
| 1777282349 | 17.78° C | 54% | 1020.2 hPa | - | - | - | - |
| 1777281148 | 17.78° C | 55% | 1020.4 hPa | - | - | - | - |
| 1777279948 | 17.78° C | 55% | 1020.5 hPa | - | - | - | - |
| 1777278748 | 17.78° C | 55% | 1020.4 hPa | - | - | - | - |
| 1777277547 | 17.78° C | 56% | 1020.5 hPa | - | - | - | - |
| 1777276347 | 17.22° C | 55% | 1020.5 hPa | - | - | - | - |
| 1777275147 | 17.22° C | 56% | 1020.4 hPa | - | - | - | - |
| 1777273946 | 17.78° C | 57% | 1020.4 hPa | - | - | - | - |
| 1777272746 | 17.22° C | 57% | 1020.5 hPa | - | - | - | - |
| 1777271546 | 17.22° C | 64% | 1020.6 hPa | - | - | - | - |
| 1777270345 | 16.67° C | 67% | 1020.5 hPa | - | - | - | - |
| 1777269145 | 16.67° C | 68% | 1020.5 hPa | - | - | - | - |
| 1777267945 | 16.67° C | 68% | 1020.5 hPa | - | - | - | - |
| 1777266744 | 16.67° C | 68% | 1020.4 hPa | - | - | - | - |
| 1777265544 | 16.67° C | 67% | 1020.2 hPa | - | - | - | - |
| 1777264344 | 17.22° C | 67% | 1019.9 hPa | - | - | - | - |
| 1777263143 | 17.22° C | 66% | 1019.8 hPa | - | - | - | - |
* Rain since midnight (hover to see other rain measurements)
** Current wind speed in m/s (hover to see current wind gust speed)